Wind_Speed
56 57 58 59 60 60 60 61 62 64 65 67 68 70 72 74 75 78 79 78 75 71 69 66 59 51 46 43 41 35 33 33 32 29 30 28 30 30 29 30 29 29 28
61 62 61 62 63 64 64 65 66 67 69 70 71 73 74 76 78 77 76 74 71 71 70 63 52 47 44 43 38 36 35 36 36 34 34 32 29 26 26 26 25 26 27
66 66 67 66 68 67 68 69 69 71 71 72 73 74 77 77 76 74 73 71 72 73 68 55 48 46 42 43 40 38 37 37 33 29 26 24 26 28 26 27 27 27 28
72 71 71 72 69 70 72 72 71 72 73 74 75 76 76 75 75 74 74 73 74 67 60 51 48 45 42 41 39 39 35 30 28 29 30 30 30 30 31 32 30 30 31
75 75 76 74 74 72 72 72 72 73 74 74 75 76 76 76 77 77 74 75 73 63 54 48 45 41 41 41 39 36 33 32 33 34 35 34 34 34 35 35 38 38 38
77 76 75 74 72 72 71 72 72 73 75 77 77 78 79 80 79 77 75 74 65 58 47 43 41 41 43 42 37 34 36 38 39 40 41 42 42 42 43 42 41 41 42
77 75 73 71 69 70 71 71 72 74 77 79 80 81 81 81 78 76 75 68 59 55 49 47 47 46 44 41 38 40 42 44 45 46 47 48 48 48 50 51 50 49 47
75 73 71 71 71 70 70 71 74 77 80 81 82 82 82 80 77 73 66 61 54 55 51 49 49 48 45 45 45 45 48 49 50 51 53 53 54 55 55 56 55 54 53
75 73 73 73 73 72 74 76 78 80 82 82 82 81 79 76 72 65 61 56 52 51 47 49 50 50 50 50 51 53 54 56 57 59 60 61 62 62 62 61 59 58 58
78 76 76 76 75 76 77 78 80 82 82 82 80 77 74 69 63 60 56 54 53 54 51 52 52 54 57 57 59 60 62 64 65 67 68 69 69 69 69 69 68 66 65
80 79 78 78 77 78 79 80 81 81 80 77 73 69 65 61 58 55 53 54 55 54 56 57 59 62 63 65 67 69 71 72 73 75 76 77 77 76 75 74 74 73 71
83 81 81 80 81 79 80 80 80 79 74 70 65 63 62 59 56 54 55 56 58 61 63 65 67 69 70 72 74 76 78 79 81 82 83 84 83 81 80 79 79 79 79
83 82 81 82 81 81 80 77 75 72 68 65 62 58 55 55 55 58 60 63 66 68 70 72 74 76 79 81 82 83 84 84 83 85 85 87 88 90 91 88 87 88 89
82 82 82 82 81 76 74 72 67 63 61 59 59 59 60 63 64 66 68 71 73 76 79 81 82 83 84 86 87 87 89 90 92 93 95 96 97 97 98 99 98 99 98
84 83 81 76 73 71 65 60 59 59 60 61 62 65 68 70 72 75 77 79 81 83 84 85 86 89 93 94 95 95 97 99 102 103 104 104 106 108 109 109 109 109 110
77 73 70 68 62 59 59 59 61 62 64 67 69 72 75 78 80 82 84 85 87 89 91 94 96 99 101 102 104 105 106 107 109 111 111 113 115 117 118 120 119 119 121
61 59 56 55 58 60 62 64 67 69 72 75 78 81 83 85 86 89 91 92 95 97 100 102 105 107 109 111 112 115 116 117 118 120 122 122 124 126 127 126 128 131 132
50 54 58 60 63 65 68 71 74 76 77 78 81 84 87 90 93 96 98 100 103 106 108 109 111 114 116 119 121 123 125 126 127 129 130 131 133 135 137 138 136 137 138
58 61 65 68 70 72 74 75 78 80 84 86 88 90 93 96 99 102 105 107 109 112 115 119 123 125 127 130 133 135 136 136 139 142 143 145 147 149 149 149 146 144 144
64 67 70 72 75 77 79 81 83 86 90 93 95 98 102 104 106 108 111 116 119 121 123 125 129 132 134 138 141 145 149 149 150 151 153 152 151 151 151 151 147 140 143
70 73 76 78 81 84 86 89 92 94 97 99 102 105 108 111 115 118 121 124 127 129 132 135 136 139 142 146 151 154 156 156 156 154 152 149 147 143 138 135 131 125 122
79 81 84 86 88 91 94 96 99 102 104 107 110 114 117 120 123 126 129 132 135 138 140 143 146 149 152 155 157 157 153 148 146 141 137 133 131 129 126 123 118 112 108
89 91 93 95 97 100 102 104 107 109 111 115 119 122 125 127 130 132 135 140 144 147 149 153 155 156 156 152 150 146 141 138 134 129 124 120 117 115 111 106 102 100 97
95 97 99 102 105 107 110 112 114 117 120 122 126 129 131 133 136 140 143 147 152 155 158 159 157 149 143 140 135 131 127 124 121 116 110 108 104 98 93 91 89 86 84
102 105 107 110 113 115 117 119 121 123 126 130 133 135 138 140 143 147 151 154 157 158 153 146 140 133 128 126 123 121 116 109 105 100 95 91 88 84 82 80 79 77 75
109 111 113 116 119 121 123 126 129 131 134 136 139 141 144 148 151 153 153 153 149 144 137 131 125 122 118 110 107 103 99 93 89 85 83 80 77 74 72 71 69 67 65
Wind_Direction
252 255 257 262 265 268 272 275 278 281 284 286 289 292 296 298 300 301 304 304 306 309 311 313 311 308 307 306 306 304 306 305 302 302 301 302 304 304 305 304 303 300 300
250 255 258 260 264 267 271 274 277 280 282 286 289 292 295 298 299 301 301 304 306 308 310 310 306 303 301 300 299 301 300 300 301 303 301 304 304 307 310 308 310 310 310
251 256 258 261 265 267 270 273 276 280 283 287 290 293 294 296 298 299 302 304 306 308 309 305 298 297 294 294 296 296 298 299 299 303 308 312 315 313 311 314 314 314 316
253 255 259 261 264 268 272 275 279 282 285 288 291 292 293 294 296 299 301 303 306 306 303 300 296 293 287 288 291 294 296 297 298 300 305 307 309 310 309 310 310 311 314
254 256 259 263 266 271 274 277 280 283 286 288 290 291 291 294 296 298 299 302 303 299 298 297 295 289 287 287 291 292 292 295 297 298 299 301 302 303 306 308 309 311 311
256 259 262 264 267 270 274 277 281 284 286 287 288 289 291 294 295 296 298 300 297 293 291 290 292 288 288 287 285 285 289 289 292 296 297 299 300 301 301 301 300 301 302
256 259 261 265 267 271 274 278 281 283 285 286 287 288 291 293 294 295 297 294 290 289 286 282 286 286 287 284 283 283 285 287 290 291 292 294 295 296 297 299 300 299 299
256 259 262 264 267 272 276 279 281 283 285 286 286 288 290 291 292 293 291 288 287 293 282 278 283 282 280 282 285 284 285 287 287 288 290 291 291 292 291 292 292 293 294
255 258 261 265 270 273 276 279 281 283 283 284 286 287 289 289 290 288 285 283 286 290 281 279 281 280 282 282 283 285 286 287 287 287 287 287 288 288 290 291 291 290 291
255 258 262 267 270 273 276 279 280 281 282 284 286 287 288 286 286 282 280 280 283 284 282 281 280 281 282 282 283 285 287 287 287 287 287 288 290 291 291 292 292 292 292
257 260 264 267 271 273 276 278 278 279 282 285 284 283 283 283 281 279 278 279 280 280 282 282 281 282 282 282 283 285 287 287 287 287 288 289 290 291 290 290 290 291 290
260 263 266 269 271 273 276 275 277 280 280 280 279 280 280 279 278 278 280 279 279 280 282 283 283 284 285 286 286 286 287 288 288 287 287 287 288 289 289 289 289 289 289
259 263 266 268 271 273 272 275 276 278 277 276 277 277 279 278 278 278 279 279 281 282 283 284 285 286 287 287 287 286 286 286 286 286 287 287 287 288 288 289 288 289 289
261 262 264 268 269 269 272 274 274 273 272 272 274 276 278 279 280 281 282 283 284 285 285 285 286 286 287 287 286 285 286 286 286 286 285 286 286 286 287 286 285 286 288
260 262 265 265 267 270 269 267 267 268 270 274 276 278 279 281 282 282 283 284 284 285 286 286 285 285 286 286 285 285 285 285 286 287 285 285 285 285 285 286 286 286 287
261 261 263 266 265 263 265 269 272 274 276 277 279 280 280 281 282 284 285 285 285 285 286 287 287 287 286 284 284 284 284 285 285 286 286 286 287 286 285 284 285 285 286
260 261 261 263 266 269 271 273 275 277 278 279 280 281 282 283 283 285 285 285 286 287 287 287 287 287 287 288 288 288 288 287 287 287 286 286 286 286 286 285 285 286 287
262 264 265 268 271 273 274 275 276 277 279 280 281 282 282 283 284 285 286 287 287 287 288 288 289 289 289 289 288 288 287 286 286 286 286 286 286 286 285 286 286 285 286
262 264 265 267 269 270 271 273 276 278 279 281 282 282 284 285 286 286 287 287 287 288 289 289 290 290 290 289 289 290 290 289 289 289 289 289 288 288 288 289 289 288 288
268 268 269 270 272 273 274 276 277 280 281 282 283 285 286 287 287 287 288 289 289 290 290 290 291 291 290 290 290 291 291 291 291 290 291 291 290 289 288 287 287 286 284
268 270 271 272 273 274 275 277 279 281 282 283 284 285 286 286 287 288 289 289 289 290 290 290 290 290 290 291 290 291 292 292 291 291 290 289 288 287 287 286 285 284 282
270 271 272 273 274 276 278 279 281 283 283 284 284 285 285 286 287 288 288 289 289 289 289 289 289 290 290 292 292 292 292 291 291 290 290 289 287 287 287 286 285 284 282
273 274 275 277 278 279 280 281 281 281 282 283 284 285 286 287 287 288 288 288 288 288 288 289 291 292 292 293 292 291 291 291 290 290 290 290 289 287 286 285 284 283 282
273 274 275 275 276 277 278 279 280 282 283 284 284 285 285 285 286 286 287 287 288 290 292 293 294 294 293 292 292 292 292 292 291 290 290 289 288 287 286 285 284 283 282
274 274 275 276 277 278 279 280 280 281 281 281 282 283 283 284 285 286 287 290 292 293 293 292 292 292 293 293 292 292 292 292 291 291 290 288 288 288 287 286 284 283 281
273 274 274 275 276 277 278 279 279 279 280 281 282 282 283 284 286 288 290 293 292 292 293 293 293 293 294 293 293 293 293 292 292 292 291 290 290 289 288 286 284 282 280
Height
10737 10736 10737 10735 10735 10736 10739 10739 10739 10737 10737 10735 10734 10731 10729 10726 10721 10716 10711 10706 10702 10697 10692 10687 10682 10678 10673 10669 10666 10663 10660 10657 10655 10653 10650 10646 10643 10640 10636 10632 10629 10626 10623
10725 10725 10727 10725 10725 10727 10728 10729 10729 10727 10725 10725 10723 10721 10718 10714 10708 10704 10699 10695 10691 10686 10681 10676 10672 10668 10665 10662 10659 10656 10654 10651 10648 10646 10643 10639 10637 10634 10630 10627 10623 10620 10617
10715 10714 10715 10716 10714 10717 10717 10718 10718 10716 10715 10713 10712 10710 10706 10701 10696 10692 10689 10684 10679 10674 10669 10665 10661 10658 10656 10654 10652 10649 10646 10644 10641 10639 10636 10634 10630 10627 10626 10622 10618 10615 10611
10701 10704 10701 10704 10706 10706 10705 10707 10707 10705 10704 10702 10700 10697 10693 10688 10684 10680 10677 10672 10667 10662 10658 10654 10651 10648 10646 10645 10643 10640 10638 10636 10634 10632 10630 10627 10624 10622 10619 10616 10614 10609 10605
10687 10688 10689 10692 10695 10695 10695 10696 10695 10694 10691 10689 10686 10683 10678 10675 10672 10668 10664 10660 10655 10650 10647 10643 10640 10638 10637 10636 10634 10632 10630 10628 10626 10624 10622 10620 10618 10615 10613 10611 10606 10603 10600
10674 10676 10678 10680 10684 10685 10684 10684 10683 10681 10678 10674 10670 10667 10665 10662 10659 10655 10651 10647 10643 10639 10637 10633 10631 10629 10628 10626 10624 10623 10621 10619 10617 10615 10613 10611 10609 10607 10605 10602 10599 10596 10592
10660 10663 10667 10670 10672 10672 10672 10672 10670 10667 10663 10659 10656 10653 10651 10648 10645 10641 10638 10634 10630 10627 10624 10622 10620 10619 10618 10616 10614 10613 10611 10609 10607 10605 10603 10600 10598 10596 10594 10592 10589 10586 10583
10648 10652 10655 10657 10658 10660 10659 10658 10655 10652 10648 10644 10641 10639 10636 10633 10629 10627 10623 10620 10618 10614 10611 10610 10609 10607 10606 10604 10603 10601 10599 10597 10595 10593 10590 10588 10585 10582 10581 10579 10577 10575 10573
10636 10639 10641 10643 10645 10646 10645 10643 10640 10637 10632 10628 10626 10623 10620 10617 10614 10611 10609 10607 10605 10602 10598 10597 10596 10595 10593 10592 10590 10587 10585 10583 10580 10578 10575 10572 10570 10567 10565 10564 10563 10563 10559
10624 10627 10630 10631 10632 10631 10629 10627 10624 10620 10616 10613 10610 10607 10604 10601 10599 10596 10595 10593 10591 10589 10586 10584 10583 10582 10580 10578 10575 10572 10570 10567 10564 10561 10558 10555 10553 10550 10548 10546 10545 10544 10545
10611 10614 10616 10616 10617 10616 10614 10611 10608 10604 10601 10598 10595 10591 10589 10586 10584 10582 10581 10579 10577 10576 10574 10571 10569 10567 10564 10562 10559 10556 10553 10550 10545 10542 10539 10534 10533 10530 10528 10526 10524 10523 10525
10597 10599 10600 10601 10601 10600 10598 10595 10591 10588 10584 10581 10578 10576 10574 10572 10570 10569 10567 10564 10562 10560 10558 10555 10552 10549 10546 10543 10540 10537 10533 10530 10526 10522 10519 10514 10512 10508 10506 10505 10503 10502 10499
10583 10586 10586 10585 10585 10583 10581 10579 10575 10572 10569 10566 10564 10562 10560 10559 10557 10554 10552 10549 10546 10544 10541 10538 10533 10530 10526 10522 10518 10516 10512 10508 10504 10499 10496 10491 10488 10485 10481 10480 10479 10476 10476
10570 10569 10569 10569 10568 10566 10564 10562 10558 10556 10554 10551 10549 10547 10545 10543 10541 10538 10536 10532 10528 10524 10521 10517 10513 10508 10503 10499 10495 10491 10488 10484 10479 10474 10470 10465 10461 10457 10453 10451 10450 10448 10448
10551 10553 10553 10552 10551 10550 10547 10545 10543 10541 10539 10536 10534 10531 10529 10526 10523 10519 10516 10512 10508 10503 10499 10494 10489 10485 10479 10475 10470 10465 10462 10457 10452 10446 10441 10436 10432 10427 10422 10421 10419 10417 10417
10536 10536 10537 10536 10535 10533 10532 10530 10528 10526 10523 10520 10517 10514 10510 10506 10502 10498 10493 10489 10484 10479 10475 10470 10465 10459 10452 10447 10441 10437 10432 10426 10421 10417 10409 10402 10397 10391 10386 10381 10380 10380 10378
10522 10522 10521 10521 10520 10518 10516 10514 10512 10509 10505 10502 10498 10494 10489 10485 10480 10475 10470 10465 10460 10454 10449 10443 10436 10429 10421 10414 10408 10402 10398 10393 10386 10380 10373 10368 10359 10352 10346 10345 10339 10336 10332
10508 10508 10507 10505 10503 10501 10499 10496 10493 10490 10486 10482 10477 10472 10468 10463 10457 10451 10445 10438 10433 10426 10419 10412 10403 10397 10388 10379 10371 10364 10360 10355 10349 10342 10334 10329 10321 10312 10305 10303 10303 10297 10289
10493 10492 10490 10488 10486 10483 10480 10477 10473 10470 10465 10460 10455 10449 10444 10438 10432 10426 10419 10410 10404 10395 10387 10379 10371 10363 10355 10342 10332 10321 10317 10311 10305 10296 10291 10285 10274 10263 10254 10250 10248 10247 10242
10475 10473 10471 10469 10466 10463 10459 10456 10452 10448 10443 10437 10431 10425 10419 10412 10404 10396 10388 10379 10371 10364 10354 10346 10334 10324 10317 10304 10291 10276 10267 10264 10257 10252 10245 10234 10223 10214 10206 10197 10194 10197 10190
10454 10452 10450 10447 10444 10441 10437 10433 10429 10424 10418 10411 10404 10396 10388 10381 10373 10366 10356 10347 10337 10328 10318 10310 10301 10288 10275 10267 10250 10237 10226 10219 10214 10207 10197 10185 10172 10166 10157 10147 10142 10141 10141
10432 10430 10427 10424 10421 10416 10412 10407 10403 10398 10391 10384 10377 10368 10358 10349 10341 10333 10323 10311 10299 10290 10281 10271 10263 10252 10239 10227 10214 10199 10183 10173 10165 10159 10148 10139 10129 10120 10111 10103 10096 10093 10089
10407 10404 10401 10398 10394 10389 10384 10379 10374 10368 10362 10354 10346 10336 10326 10316 10307 10297 10288 10276 10260 10249 10242 10232 10224 10215 10201 10185 10166 10152 10141 10128 10117 10109 10100 10093 10085 10076 10070 10062 10056 10052 10050
10383 10380 10377 10372 10367 10362 10357 10352 10346 10339 10331 10324 10313 10303 10294 10284 10273 10262 10249 10237 10224 10212 10200 10188 10175 10164 10154 10138 10122 10110 10098 10087 10078 10067 10061 10052 10042 10037 10033 10027 10020 10017 10015
10358 10354 10349 10343 10337 10333 10328 10322 10316 10309 10301 10290 10278 10269 10259 10248 10238 10226 10212 10200 10186 10169 10158 10144 10133 10123 10115 10097 10085 10073 10062 10050 10039 10033 10026 10016 10010 10006 9999 9995 9990 9987 9983
10328 10324 10318 10313 10307 10302 10296 10288 10280 10272 10264 10256 10245 10233 10222 10210 10200 10192 10183 10162 10146 10130 10115 10104 10094 10085 10073 10064 10050 10038 10027 10017 10008 10004 9995 9987 9982 9977 9972 9967 9962 9959 9957